Location: Hohe Wand Waldeggerhaus
(47.8500°N, 16.0440°E)
Time: 04:30:11
(UTC+02:00)

ISS - Visible Passes

Search period start: 22 May 2024 00:00
Search period end: 01 June 2024 00:00
Orbit: 409 x 414 km, 51.6° (Epoch: 21 May)

Date Brightness Start Highest point End Pass type
(mag) Time Alt. Az. Time Alt. Az. Time Alt. Az.
22 May -1.0 00:12:37 10° W 00:12:51 11° W 00:12:51 11° W visible
22 May -3.5 21:45:23 10° WNW 21:48:43 67° NNE 21:51:47 12° ESE visible
22 May -2.4 23:22:15 10° W 23:24:34 27° WSW 23:24:34 27° WSW visible
23 May -3.3 22:32:04 10° WNW 22:35:15 45° SSW 22:36:17 33° SSE visible
24 May -3.7 21:41:55 10° WNW 21:45:14 70° SSW 21:47:59 14° SE visible
24 May -1.4 23:19:39 10° WSW 23:20:46 13° WSW 23:20:46 13° WSW visible
25 May -2.1 22:28:51 10° W 22:31:27 21° SW 22:32:28 19° SSW visible
26 May -2.7 21:38:24 10° WNW 21:41:27 34° SW 21:44:10 12° SSE visible
28 May -1.5 21:35:10 10° W 21:37:19 16° SW 21:39:28 10° S visible
